Theta_e
285 281 283 282 282 282 282 282 283 282 280 277 278 277 282 279 279 278 281 279 277 280 281 282 282 282 282 282 282 283 284 282 282 281 281 281 281 279 278 278 278 279 279 279 279 279 278 278 278 278 278 279 278 278 278 278 278 278 277 276 276 275 275 275 275 275 275 275 275 274 274 274 273 273 273 273 273 272 272 272 272 272 272 272 272 272 272
283 282 281 281 281 280 280 281 281 281 280 280 281 281 281 279 278 280 281 278 278 280 279 280 281 281 281 281 283 282 282 282 283 281 281 281 280 278 278 278 279 279 280 279 279 278 277 278 278 278 278 278 278 278 278 278 277 278 277 276 276 275 275 274 274 274 274 274 274 273 273 273 272 272 271 271 271 270 270 270 270 270 270 270 270 270 270
277 278 279 280 280 280 280 282 281 280 278 279 280 280 278 277 276 278 278 277 277 281 282 279 280 280 280 280 281 281 281 281 282 281 281 280 279 278 278 278 278 279 278 278 277 277 277 277 278 278 278 278 278 278 278 278 278 278 277 276 275 274 274 274 274 274 273 273 273 272 272 271 269 269 270 269 268 268 268 268 268 269 269 269 269 269 269
275 275 276 278 275 276 275 275 277 276 276 276 278 275 278 277 276 277 275 271 275 281 280 280 280 280 280 281 281 281 282 281 280 280 280 279 278 278 278 278 278 277 277 277 277 277 277 277 277 278 278 278 278 278 278 278 278 277 276 275 274 273 273 273 272 272 272 271 270 269 268 267 267 266 266 266 266 267 267 267 267 267 267 267 267 268 268
275 275 274 274 273 275 274 276 278 277 278 280 278 277 278 279 280 275 273 275 280 280 279 278 279 280 279 278 279 280 279 278 279 279 279 279 279 278 278 277 277 277 278 278 277 278 277 278 278 278 279 278 278 279 279 279 276 275 274 274 272 272 271 271 270 270 269 268 267 266 266 266 265 265 265 266 265 265 265 265 266 266 266 266 266 266 266
272 272 272 273 272 268 273 278 280 280 277 277 275 277 278 278 279 276 278 278 276 276 276 278 279 278 277 279 279 279 280 279 278 278 277 278 278 278 278 277 278 278 278 278 278 278 278 279 279 279 278 279 279 278 277 275 275 274 273 272 271 270 269 269 269 269 267 265 266 265 265 265 265 265 264 264 264 264 265 265 264 264 264 264 264 264 265
270 271 272 271 268 272 278 275 276 277 277 277 277 278 277 276 275 277 276 277 276 278 279 280 280 278 277 275 276 277 277 278 279 279 278 278 277 278 278 278 278 278 278 278 277 277 277 278 278 278 277 277 277 274 274 274 273 273 271 270 269 269 268 268 267 265 266 265 264 264 264 264 263 263 263 263 264 264 263 263 263 263 263 262 263 263 263
271 270 273 269 270 278 276 276 276 276 275 276 275 273 276 276 276 277 276 278 279 279 278 278 277 277 276 274 274 275 275 277 279 277 278 277 277 276 277 277 278 278 278 278 278 278 279 278 278 277 278 276 275 274 272 273 271 270 269 268 268 267 267 266 265 266 265 263 263 262 264 263 262 263 262 262 262 262 262 262 262 262 262 262 262 262 262
271 272 271 274 275 276 279 278 272 275 273 273 273 269 273 277 275 276 276 277 278 277 276 275 273 273 273 274 274 274 274 275 275 277 277 276 275 276 276 276 277 277 277 278 278 277 276 276 276 276 275 274 274 272 271 269 269 268 267 266 267 267 266 265 264 264 264 263 262 262 262 262 261 261 262 261 261 261 261 261 261 261 261 261 261 261 261
276 269 270 268 267 269 275 281 277 279 278 276 276 272 268 274 268 275 276 276 277 273 271 271 271 272 273 271 274 276 276 275 275 275 276 275 275 276 276 276 276 276 276 276 276 276 275 275 274 273 272 273 272 271 269 267 267 266 266 266 266 264 264 263 264 264 263 261 261 261 260 259 260 261 260 260 260 260 260 260 260 260 260 260 260 261 260
271 269 270 270 269 272 279 275 275 274 273 275 272 269 266 272 270 274 277 275 271 272 273 270 271 271 266 270 272 276 276 276 275 275 276 276 276 276 276 277 277 276 276 276 275 274 274 272 271 270 270 270 271 269 267 267 266 265 265 265 264 264 264 264 263 262 261 261 260 259 259 260 259 259 259 259 260 259 259 259 259 260 260 259 259 259 260
274 273 270 269 271 272 273 269 271 274 274 276 274 261 261 266 271 270 274 275 273 272 271 272 272 272 265 270 274 276 277 277 276 276 277 277 276 276 276 276 276 276 275 274 272 273 273 272 268 268 268 269 267 267 266 265 265 263 265 264 264 263 263 262 262 260 260 260 259 258 259 259 258 258 259 258 258 259 259 259 259 259 259 259 258 259 259
275 275 270 268 269 272 269 272 273 274 274 273 263 265 267 269 271 272 274 275 275 273 270 272 270 273 276 277 278 277 275 276 276 275 276 277 277 277 276 277 278 275 275 276 275 274 272 269 268 267 268 268 267 265 265 265 263 264 264 263 262 262 262 261 260 260 259 258 258 258 257 258 259 258 258 259 258 258 257 258 258 258 258 258 258 258 259
271 271 270 269 270 271 270 271 276 276 273 263 267 272 271 273 272 273 275 275 274 272 273 273 275 277 277 277 275 274 274 276 278 278 278 276 274 274 275 275 275 274 273 272 270 269 269 268 267 266 267 267 265 265 264 263 263 263 262 262 261 259 259 259 259 257 256 256 257 257 257 257 257 257 257 257 257 257 257 257 257 257 257 257 257 258 258
271 270 267 266 263 274 276 275 273 274 268 269 274 271 273 273 274 274 273 275 275 274 273 274 275 276 276 275 276 276 275 274 275 276 276 276 276 276 275 275 273 274 272 271 271 269 268 266 266 266 265 265 263 262 263 262 263 262 262 261 260 259 259 258 257 256 255 255 256 255 256 256 256 256 256 256 256 256 256 256 256 256 256 257 257 257 257
265 269 267 267 274 275 278 278 273 273 278 276 274 275 272 273 273 274 274 275 275 275 275 275 275 275 275 275 274 274 274 274 275 274 274 274 274 273 273 274 274 272 272 270 269 267 266 265 264 264 265 264 262 262 263 263 262 260 259 258 258 257 257 256 255 255 255 255 255 255 255 255 255 255 255 255 255 256 256 256 256 256 256 256 256 256 256
270 268 274 275 275 277 279 280 278 279 281 277 274 277 276 275 274 273 274 276 275 275 275 276 276 275 275 275 276 275 276 276 275 275 275 276 276 276 275 273 272 272 272 269 268 265 265 263 262 260 261 263 261 260 261 262 260 258 257 256 255 255 254 254 253 254 253 253 253 253 254 254 254 255 255 254 255 255 255 255 255 255 255 255 255 255 256
272 273 275 273 272 275 277 279 278 278 278 278 275 275 275 275 276 275 275 276 275 275 275 275 274 275 276 275 275 275 275 275 275 275 274 274 274 273 271 270 269 270 268 266 266 265 263 261 261 260 259 261 260 259 261 260 259 257 255 253 254 253 252 252 253 252 253 254 254 254 254 255 255 255 255 255 255 255 255 255 255 255 255 255 255 256 257
269 267 273 273 274 273 276 278 279 276 276 277 276 276 277 278 276 275 276 277 277 276 275 275 276 276 276 275 276 276 275 275 275 275 275 275 274 273 271 271 268 267 265 266 265 264 263 261 260 259 258 258 258 259 259 259 258 255 252 253 254 253 253 253 253 252 252 253 254 254 253 254 255 255 255 255 255 255 255 254 254 254 255 256 256 257 258
271 270 272 273 274 273 275 277 277 278 279 276 274 277 278 278 276 275 276 275 274 274 273 275 276 277 277 276 276 276 276 276 276 276 275 274 272 271 270 268 267 265 266 267 265 264 264 262 260 259 258 258 257 257 257 258 255 253 254 254 253 253 252 251 253 252 253 256 256 255 255 254 254 254 254 255 254 255 254 255 255 255 256 257 258 259 259
273 274 273 272 273 274 275 275 275 278 278 277 276 276 276 275 275 275 275 274 276 275 277 276 276 275 276 276 276 276 276 276 275 275 275 274 273 271 268 265 265 268 267 265 264 263 263 261 259 258 256 256 255 256 258 254 253 253 254 254 254 251 251 252 252 254 254 254 254 254 254 254 254 255 255 255 255 256 257 257 257 257 257 258 260 261 262
265 268 273 274 267 269 275 276 278 277 277 276 276 275 273 273 274 274 274 275 275 275 276 276 275 274 276 276 275 275 276 276 276 275 274 272 270 268 266 264 264 263 262 264 262 261 261 260 258 258 256 255 254 257 255 254 253 252 253 253 251 251 252 251 252 252 252 253 251 253 253 253 253 254 258 263 262 260 260 265 268 269 269 266 267 267 267
268 273 275 276 278 277 277 279 279 278 277 276 275 275 276 276 276 276 275 275 275 274 274 275 274 274 276 276 276 274 274 275 275 275 274 271 268 267 263 262 261 262 261 260 259 259 259 258 257 257 256 255 254 254 256 255 254 253 252 253 252 252 251 252 253 253 253 253 253 253 253 254 253 254 254 256 262 265 266 267 268 269 270 271 271 271 269
274 276 277 277 276 276 278 279 278 276 276 276 276 277 277 277 277 276 275 275 275 276 276 274 274 275 275 275 274 274 274 274 273 272 271 271 269 266 263 265 263 262 260 259 260 259 258 257 257 255 255 254 254 254 254 254 254 253 252 253 253 252 252 252 254 255 253 254 254 254 253 254 254 253 253 253 255 260 264 265 267 268 269 270 270 270 270
276 278 276 276 277 278 279 279 277 277 276 276 276 276 276 276 275 274 274 275 274 275 275 276 275 273 274 274 274 273 274 274 272 271 268 266 266 264 264 263 262 262 262 260 259 257 257 256 255 254 254 254 254 253 253 252 252 252 251 251 252 251 252 253 253 254 254 254 254 253 253 253 253 253 253 253 253 254 257 263 265 266 267 268 268 268 269
278 278 276 275 275 277 278 276 275 276 275 274 274 273 273 274 275 273 274 274 275 274 274 275 275 274 272 273 272 271 270 269 266 265 264 264 264 263 263 264 263 261 259 257 256 256 255 254 254 253 254 254 254 253 252 252 252 252 252 252 252 251 252 253 253 253 253 253 253 253 253 254 253 253 253 253 253 254 254 255 256 260 263 264 265 266 267
277 278 275 273 274 276 276 276 278 280 279 274 273 275 274 273 274 275 274 272 271 271 272 273 272 270 267 267 267 266 269 264 263 264 265 264 264 264 263 261 260 259 257 256 255 255 255 254 253 253 254 254 252 252 253 251 251 250 250 252 250 253 255 255 252 253 253 254 254 253 253 253 253 254 254 255 255 255 254 253 254 254 255 257 261 265 264
278 278 278 276 275 277 278 278 278 279 279 276 272 273 274 272 269 268 270 271 270 267 267 264 266 265 269 263 264 264 262 263 265 262 263 263 261 258 258 258 257 256 255 255 254 254 254 253 253 254 255 254 253 251 250 249 249 250 251 252 252 253 253 254 253 254 254 253 254 253 253 253 254 255 255 255 254 254 254 254 254 254 254 255 257 261 265
277 278 278 279 280 281 280 276 273 275 276 275 273 273 270 271 271 270 271 272 272 269 270 266 260 262 267 264 263 265 264 263 263 262 262 259 257 257 256 255 255 254 254 254 252 252 252 252 251 252 254 253 252 251 250 249 249 251 252 251 252 252 253 253 252 253 253 253 252 253 257 257 255 254 254 254 254 253 253 253 253 254 254 255 255 256 259
279 276 275 277 278 277 276 276 276 275 274 272 271 271 271 272 272 272 272 271 268 270 271 267 261 262 260 261 261 265 265 264 263 260 258 257 255 254 254 254 253 252 252 252 252 251 251 251 251 252 254 253 254 252 250 249 250 249 252 253 252 252 252 252 252 253 254 254 254 256 255 255 254 252 253 252 252 253 253 253 254 254 253 254 256 254 254
279 274 274 275 275 275 275 276 277 276 275 273 271 272 268 265 270 272 272 271 268 269 268 265 264 260 259 261 258 257 257 258 258 257 256 255 254 254 254 254 255 253 253 255 253 249 251 252 252 253 254 253 253 252 251 250 250 252 252 253 251 254 256 257 258 256 254 253 253 251 252 252 251 252 253 252 252 252 252 252 252 252 253 253 253 254 254
279 271 270 271 273 272 273 273 274 274 275 274 268 270 271 269 269 270 271 270 271 270 266 261 261 262 259 255 255 254 254 254 254 253 253 253 254 253 253 253 252 253 253 252 252 252 251 252 252 253 254 253 253 252 252 253 253 251 250 253 252 252 253 257 255 256 256 255 253 251 252 251 251 250 251 252 251 251 251 251 252 252 252 253 253 253 255
275 275 272 271 266 266 269 271 272 273 273 272 273 274 274 273 272 272 273 272 266 264 264 263 262 257 254 254 255 254 254 253 252 252 251 251 250 250 252 250 250 250 252 252 252 252 252 252 253 253 254 253 253 252 252 252 253 251 250 250 252 252 253 255 255 254 253 253 251 251 250 250 251 250 250 252 252 253 252 252 252 252 253 252 253 253 255
277 277 278 279 275 274 273 273 272 272 273 274 274 273 271 270 270 270 268 263 262 261 263 261 256 253 253 253 253 252 252 253 251 251 253 251 250 250 249 252 250 249 251 252 252 252 252 253 253 253 254 254 253 253 252 252 252 251 250 249 249 248 249 249 252 251 250 250 250 253 251 251 250 250 251 252 251 251 252 252 253 253 252 252 253 253 257
277 278 278 277 275 275 276 276 276 273 272 273 272 269 269 266 264 264 260 261 261 259 255 253 253 252 252 251 251 251 253 255 255 254 253 252 251 250 251 248 247 247 248 250 251 252 252 252 251 251 253 253 253 253 253 253 252 251 249 248 249 248 249 249 249 249 249 250 250 249 249 249 250 252 253 252 251 252 252 252 252 252 252 252 253 254 254
271 273 274 274 274 270 271 273 274 270 270 271 270 268 264 258 256 257 257 255 253 254 254 253 252 252 252 252 251 252 254 253 252 252 251 251 250 250 249 247 247 246 247 249 251 252 252 251 253 254 253 253 252 252 253 252 250 250 249 248 248 249 249 250 250 249 250 249 249 250 249 252 253 253 253 251 251 251 251 251 251 252 252 252 253 253 253
269 274 274 275 267 262 259 255 253 256 261 260 259 256 254 253 253 252 252 253 254 253 253 253 253 254 253 252 252 251 249 249 249 248 247 245 245 246 246 245 245 246 247 248 249 247 245 246 252 254 254 253 252 251 252 254 251 248 248 248 247 248 248 248 248 248 248 248 249 249 251 251 249 249 251 250 251 251 251 251 251 252 252 252 253 252 252
258 258 258 258 252 251 249 248 249 250 252 251 250 251 252 251 252 252 252 252 252 253 253 253 253 253 251 250 248 247 247 245 246 246 244 244 244 245 244 244 247 246 247 249 246 244 244 250 254 252 249 250 252 252 253 255 255 250 247 246 247 248 249 248 248 249 249 247 250 249 249 249 249 250 250 250 249 250 250 251 251 251 251 252 251 251 252
255 253 251 251 251 250 249 249 248 249 250 250 249 249 250 252 252 252 252 251 250 251 251 251 251 252 251 249 248 246 246 244 244 243 243 243 243 243 246 247 248 249 249 249 248 249 251 252 250 250 248 247 250 251 252 254 255 250 247 247 247 248 249 249 248 249 249 250 248 248 248 249 250 250 251 250 250 251 251 252 252 251 251 250 250 250 250
255 253 252 251 251 250 250 249 249 249 249 249 251 250 251 252 252 251 251 251 251 251 251 252 251 249 248 248 247 246 246 244 243 243 243 241 242 242 244 246 247 247 249 250 250 249 251 252 250 247 248 248 250 246 249 252 254 250 247 247 246 247 248 248 248 248 248 248 249 252 250 251 250 251 251 251 250 250 248 249 249 249 250 249 249 249 250
253 251 251 252 251 251 251 251 249 248 248 249 249 250 250 251 252 251 250 249 251 251 250 249 249 249 248 247 245 245 243 244 242 242 242 241 243 243 244 248 247 244 245 246 246 248 250 251 248 248 247 250 249 252 247 253 250 247 247 246 246 247 247 248 248 249 249 250 250 249 250 250 250 250 250 249 249 248 249 248 248 249 248 249 248 249 248
252 252 252 252 251 250 249 249 249 250 248 248 249 249 249 251 250 249 250 250 249 249 247 247 250 249 245 243 244 243 242 242 241 241 241 245 245 245 246 249 249 248 251 251 251 251 249 248 249 252 250 249 248 253 254 252 248 246 247 247 248 248 248 248 249 250 249 249 250 249 249 250 249 249 249 248 248 248 248 248 248 248 247 248 249 248 248
251 251 251 250 250 249 249 250 250 249 249 249 247 246 246 247 248 247 247 247 246 247 249 245 246 247 246 243 243 243 244 244 243 243 242 243 244 246 248 249 248 247 252 251 250 248 247 246 246 245 252 253 251 253 255 253 250 246 247 248 249 248 248 249 249 250 249 249 249 250 249 249 248 248 248 248 248 247 247 247 247 248 248 248 247 247 248
249 250 250 249 249 249 249 249 249 249 249 248 248 246 245 245 245 246 246 246 245 248 248 247 246 243 244 243 243 244 246 244 244 243 241 246 247 247 246 246 247 248 251 250 249 249 249 249 247 251 253 254 255 255 254 252 250 251 247 248 248 248 249 249 250 250 250 250 250 250 250 250 249 248 246 248 248 247 247 247 247 247 248 247 247 248 248
249 249 249 249 249 249 249 249 250 250 249 248 247 245 244 243 243 243 245 244 244 246 248 247 247 248 246 244 245 246 247 246 246 244 244 247 246 249 246 248 247 247 249 253 249 249 249 248 251 254 255 255 255 255 254 252 252 252 251 250 249 249 250 250 250 250 250 250 250 250 250 249 248 248 247 247 249 248 248 248 248 247 248 248 248 248 248
248 249 249 250 249 248 248 247 248 249 249 249 248 248 246 242 242 242 243 243 244 247 249 249 248 248 249 247 248 247 245 245 245 245 248 249 249 247 245 250 248 252 253 254 251 250 250 254 255 256 256 256 256 255 253 253 253 252 252 250 250 250 250 250 250 250 250 251 251 250 249 249 248 248 247 247 247 247 248 249 249 248 248 247 247 247 248
249 248 247 247 246 246 247 248 249 250 250 249 248 245 246 244 244 243 243 243 244 243 244 247 248 249 250 249 246 245 246 246 247 245 245 246 247 249 251 252 253 254 254 251 251 251 251 252 255 256 256 256 256 252 252 253 252 252 251 250 250 250 251 251 251 250 250 250 250 250 250 250 249 249 248 249 248 248 248 247 247 248 248 248 248 249 249
248 247 246 245 245 244 245 246 247 247 246 247 247 247 245 243 243 243 243 243 243 243 243 242 243 243 243 243 244 245 247 244 244 248 242 242 243 243 244 243 249 253 255 256 256 256 257 257 257 256 256 256 255 253 253 253 253 253 251 251 250 250 250 250 250 250 250 250 249 249 249 248 248 247 247 247 247 247 247 247 247 247 248 247 247 247 247
246 245 244 244 245 246 247 247 247 247 245 245 245 245 245 244 244 245 245 242 242 244 244 242 240 240 239 242 242 242 243 245 247 247 244 243 242 243 246 251 254 255 255 253 253 252 255 256 256 256 256 255 254 253 253 253 252 252 252 252 251 251 251 251 251 250 249 248 249 249 249 249 249 248 248 248 247 247 247 247 247 246 247 247 247 248 248
245 245 246 246 246 246 246 247 246 246 244 244 243 244 244 245 247 246 245 245 244 247 241 240 241 242 241 240 240 242 242 243 247 249 250 250 248 251 251 251 252 255 255 254 252 254 255 256 256 256 255 254 254 254 254 253 253 253 252 252 252 252 252 251 252 251 250 250 249 249 249 249 249 249 249 248 247 247 247 247 246 248 250 250 249 248 247
247 247 246 245 244 244 243 243 244 244 244 244 242 244 245 244 244 247 245 245 241 244 244 245 244 242 240 240 243 243 242 242 245 250 250 251 252 254 255 255 255 256 256 256 255 254 255 254 254 255 255 254 254 254 254 253 253 253 253 253 252 252 251 251 250 250 250 249 249 249 249 248 248 247 246 247 247 247 247 247 247 247 246 247 247 246 247
246 245 244 244 243 242 241 239 240 240 240 242 241 243 243 243 244 244 242 250 243 243 243 243 246 243 240 243 247 246 244 245 247 248 253 254 253 253 254 256 255 255 255 255 255 255 255 255 255 255 254 254 254 253 253 253 252 252 252 252 251 251 251 250 250 250 249 249 249 249 248 248 247 247 247 247 247 247 247 247 247 246 247 246 246 246 246
Wind_Speed
5 2 2 3 3 4 3 7 8 8 7 4 10 5 12 7 10 14 6 5 5 7 7 7 8 8 8 7 9 11 11 6 2 3 6 9 9 6 6 8 8 9 10 11 11 8 8 6 8 7 7 7 6 6 6 7 6 8 6 5 5 4 4 3 2 2 2 2 2 2 1 1 2 3 3 3 3 4 4 5 5 5 6 6 9 9 8
3 3 5 3 6 3 3 7 9 5 7 10 9 13 8 4 6 7 8 4 10 8 6 6 8 5 4 6 6 2 1 5 7 7 8 8 6 6 8 9 11 12 12 10 8 7 7 8 8 7 7 7 8 8 8 8 7 7 5 5 5 4 4 3 2 1 1 1 1 2 2 3 3 3 3 4 4 4 4 4 4 5 5 6 7 8 10
4 2 1 1 1 3 8 10 9 5 2 7 13 6 0 3 5 11 10 11 14 10 7 4 4 4 4 4 6 6 6 5 6 7 7 6 6 8 9 8 9 9 7 6 5 7 8 8 9 9 8 8 8 8 8 8 8 6 6 5 4 4 4 3 3 2 2 1 1 2 2 3 3 4 6 5 5 6 5 6 6 6 6 7 6 7 8
4 0 3 3 4 1 5 10 12 4 6 13 9 6 6 8 12 9 4 5 10 13 1 3 4 4 6 8 8 7 7 7 5 6 7 7 7 7 8 8 6 6 7 7 8 8 8 8 8 8 9 8 7 9 9 8 7 4 5 4 5 4 4 3 3 3 2 2 2 2 3 3 3 4 4 5 5 6 6 8 8 6 7 6 7 7 8
4 1 2 3 2 4 11 19 15 11 14 12 1 2 7 14 10 6 9 12 10 6 1 2 6 7 5 4 6 8 6 3 6 8 8 8 6 7 8 7 7 8 9 9 9 8 6 8 8 10 10 7 9 10 10 7 3 4 5 6 6 5 3 3 3 3 2 2 1 2 2 3 3 4 4 5 5 6 7 6 6 6 8 8 8 7 8
3 3 4 3 2 10 17 1 5 12 12 13 13 14 16 8 7 7 7 8 3 2 4 7 9 6 5 7 7 5 7 7 7 5 4 6 6 5 5 6 7 7 5 5 6 8 9 9 10 9 7 9 10 5 4 4 6 5 7 5 6 5 3 3 3 3 2 2 2 2 3 4 4 5 5 6 5 4 5 6 6 7 6 7 7 7 8
3 1 4 3 13 17 1 2 2 3 6 7 12 12 7 6 6 7 6 6 6 10 8 9 8 4 2 2 4 5 7 5 7 8 8 7 7 7 6 5 5 6 7 6 5 5 7 9 7 5 6 7 5 3 4 6 5 7 5 6 5 4 4 3 3 2 3 2 2 3 3 4 4 5 5 6 6 6 6 6 8 8 8 9 7 6 7
4 3 6 8 12 0 3 3 2 2 3 1 0 6 8 10 11 11 9 11 13 9 8 6 2 2 3 2 4 5 4 5 6 5 6 7 6 5 6 7 7 6 7 9 9 10 8 6 6 6 8 5 6 5 4 7 6 5 6 5 5 3 4 3 2 2 3 3 3 3 4 4 4 6 5 5 7 7 6 6 5 6 7 5 8 8 7
6 5 8 12 5 10 10 9 3 6 5 6 6 8 8 13 6 7 7 10 12 8 5 1 1 1 0 1 5 3 5 5 4 6 6 7 7 7 5 6 7 8 7 7 7 4 2 3 4 5 4 5 6 6 6 5 5 5 5 4 4 4 3 2 3 3 3 3 3 4 4 5 5 5 6 6 5 4 7 7 7 7 7 7 7 8 9
6 6 5 3 3 13 14 8 0 1 3 5 4 4 7 6 1 7 10 10 13 5 1 1 3 2 1 4 6 5 6 5 5 4 4 3 4 5 5 4 4 3 4 3 2 3 3 0 0 1 4 6 7 7 6 5 5 5 4 4 3 3 3 2 3 3 4 2 3 4 4 4 5 5 4 4 4 4 6 8 9 7 7 8 7 6 8
4 2 7 9 11 11 5 4 4 1 1 7 5 1 7 5 6 10 11 8 4 6 7 4 4 4 3 7 6 8 6 5 5 5 6 5 6 7 8 8 8 7 5 4 3 3 3 4 1 3 4 6 7 6 5 4 4 4 4 4 3 3 3 3 3 2 2 2 2 3 4 4 4 5 5 5 5 4 5 6 8 7 7 8 8 7 7
6 5 6 9 4 6 3 4 2 2 3 4 4 1 8 4 5 4 6 8 8 8 5 7 7 8 6 7 7 6 8 9 8 8 8 7 7 8 7 5 5 4 4 5 3 4 6 5 4 4 5 5 5 5 4 3 4 3 3 4 3 4 4 3 2 1 2 2 3 3 5 5 4 4 4 5 5 5 6 5 8 7 7 8 9 9 7
12 12 6 3 6 5 3 5 5 4 3 5 5 11 9 3 5 7 6 7 9 8 7 6 7 8 8 8 7 2 2 2 3 4 5 7 6 8 7 7 4 4 5 6 7 8 6 7 6 5 6 6 5 4 4 4 3 3 4 4 4 4 3 2 2 2 2 2 4 4 4 5 5 4 4 6 6 6 7 7 7 8 8 8 9 9 7
11 9 9 9 5 6 7 5 8 7 5 3 11 6 3 9 6 6 9 8 6 7 10 8 8 8 9 6 1 2 4 8 8 9 9 6 4 3 1 2 4 4 4 4 3 4 5 7 6 6 6 7 5 5 4 4 3 4 4 4 4 2 1 0 1 2 3 4 3 4 4 4 6 6 4 5 6 7 6 7 9 10 8 8 9 9 8
1 1 6 3 7 7 13 12 3 2 4 8 4 2 1 5 8 8 7 7 6 8 7 9 9 8 6 5 7 6 5 5 6 7 7 7 8 8 5 3 4 6 6 7 7 7 6 5 5 4 6 6 5 4 5 4 4 4 4 4 2 1 0 1 1 3 3 4 5 4 5 4 5 7 5 5 6 6 7 8 9 10 8 8 8 10 9
7 9 9 11 9 3 14 16 10 6 11 6 7 6 4 3 5 6 6 8 8 7 8 8 8 8 8 6 5 5 5 6 6 5 5 5 5 5 5 5 7 7 6 5 5 4 5 4 4 4 7 7 5 5 5 4 5 4 3 2 2 1 1 1 2 3 4 4 4 4 5 5 5 6 7 6 6 6 7 7 8 9 7 7 8 9 10
9 10 10 2 4 10 9 8 6 8 12 5 7 5 4 5 6 5 5 8 7 8 9 8 8 7 8 10 9 7 9 8 8 8 9 10 10 10 9 8 6 7 10 10 7 6 4 4 3 4 3 8 6 6 3 5 4 4 3 2 2 1 2 3 4 4 4 4 4 5 5 5 5 6 7 5 7 5 5 7 7 8 8 6 7 9 10
3 3 5 1 1 3 9 7 5 7 7 5 4 5 4 5 5 9 8 7 6 7 8 7 6 8 9 9 9 8 7 7 8 7 6 6 6 6 4 3 6 6 4 5 7 8 5 4 4 3 4 6 7 4 4 4 4 4 4 3 1 2 3 3 5 4 4 5 5 5 6 5 5 6 6 6 7 7 6 7 7 7 8 7 7 8 10
2 8 3 7 6 4 6 11 8 4 4 5 5 5 6 6 5 6 5 7 7 9 9 10 11 11 10 9 10 8 6 7 8 9 10 10 9 8 10 9 7 6 6 7 8 9 9 5 5 4 4 3 4 4 5 5 4 4 4 3 3 3 4 4 4 4 4 5 5 5 5 5 5 5 5 6 7 7 6 7 7 7 8 7 8 8 10
7 7 3 3 1 0 4 7 8 8 11 6 4 7 7 7 4 5 8 5 5 2 4 9 9 11 10 9 10 9 9 9 9 9 9 10 7 7 6 5 7 6 7 9 9 9 10 8 5 5 4 4 4 4 4 5 4 4 4 4 4 4 5 4 4 4 5 6 6 5 5 5 5 5 6 6 7 8 7 7 7 8 7 8 9 10 10
7 2 2 3 2 3 5 6 7 9 8 5 6 8 8 6 6 7 5 4 7 5 10 8 8 9 11 10 10 10 9 9 7 9 10 9 9 7 7 7 9 12 10 9 9 9 7 6 6 5 5 4 4 4 4 4 5 4 4 4 4 4 4 4 5 4 5 5 5 5 6 5 6 6 7 7 8 9 9 8 9 9 8 8 10 10 9
4 7 8 5 2 6 8 9 13 13 11 7 7 5 5 6 8 8 7 8 7 8 9 7 7 9 11 11 8 9 11 11 10 9 9 7 6 6 5 5 6 5 6 8 8 8 6 6 7 6 5 4 3 3 3 4 4 5 4 4 4 5 4 4 5 4 4 5 4 5 6 6 6 7 10 16 12 9 7 13 19 20 18 11 10 10 8
7 6 7 9 10 7 6 9 8 8 7 7 8 10 10 10 10 9 8 9 9 7 10 9 9 10 12 14 10 8 9 11 11 10 8 6 6 8 7 7 6 8 7 6 7 7 7 6 6 6 5 4 3 3 4 4 5 5 4 4 4 4 4 4 5 4 4 5 5 5 5 6 6 7 7 8 15 20 19 17 18 19 19 22 23 22 14
2 6 9 6 5 8 9 10 6 6 7 9 11 12 12 12 10 8 8 10 11 10 9 7 9 12 12 12 9 10 11 10 8 9 8 8 8 7 8 10 10 9 8 9 10 9 6 7 6 5 4 3 4 4 4 4 4 5 5 5 5 4 4 4 4 4 4 4 5 5 5 5 6 6 7 9 9 11 14 14 15 17 19 20 19 16 17
10 6 3 5 8 9 11 10 6 6 6 9 9 12 12 10 8 7 8 9 8 10 10 11 9 9 11 12 9 10 11 10 8 7 5 4 5 8 9 7 10 12 10 6 4 5 6 5 4 4 4 4 3 3 4 4 4 5 5 5 5 4 4 4 4 5 4 4 4 5 5 6 5 5 6 6 10 13 11 13 17 16 15 13 11 12 18
7 7 3 4 5 9 8 1 6 10 9 8 7 5 5 7 9 6 9 10 10 9 10 10 10 7 8 9 8 7 6 6 2 4 5 6 5 5 9 10 7 4 5 5 5 5 5 5 4 3 4 4 3 4 4 4 4 5 5 5 5 4 4 4 4 4 4 4 5 5 5 5 5 6 6 6 7 7 10 13 16 16 10 6 9 14 17
6 8 4 2 4 10 7 10 13 13 10 5 9 9 8 8 10 9 8 6 8 7 7 9 8 5 2 5 6 4 6 2 3 4 6 6 7 6 4 5 8 7 7 7 5 5 5 4 4 4 6 4 4 4 4 4 4 4 4 5 4 5 7 5 4 4 4 5 5 5 5 5 5 6 6 6 5 6 7 8 9 10 13 16 17 17 16
10 11 12 12 13 15 14 13 12 13 13 6 6 8 9 6 4 5 8 8 6 7 7 6 6 6 8 5 4 3 2 5 8 5 5 6 4 7 7 7 7 7 6 6 5 4 3 3 4 4 7 3 3 4 4 4 4 4 5 4 4 3 3 4 4 4 4 5 5 5 5 6 6 6 5 5 7 6 6 6 7 9 11 10 11 18 24
11 10 8 13 16 16 11 1 3 7 11 8 5 6 4 4 8 8 10 10 8 6 7 7 5 5 6 5 5 6 6 6 6 7 6 6 7 5 6 6 6 6 5 4 3 3 3 4 4 5 8 3 4 4 4 4 4 5 4 4 4 4 3 3 4 4 5 5 5 6 7 6 5 4 5 6 6 5 6 6 7 7 8 9 11 13 12
12 5 7 10 12 9 7 8 11 10 9 6 5 8 7 8 9 10 10 9 6 9 11 6 4 6 5 5 6 8 9 9 7 5 6 5 5 5 6 7 6 5 3 2 4 4 5 5 5 7 7 3 4 4 4 4 5 4 5 5 4 4 4 3 3 5 5 5 6 7 6 4 4 4 5 5 5 5 6 6 7 7 8 8 8 8 11
8 5 10 9 10 9 11 14 13 11 9 8 8 8 6 5 8 10 11 9 6 8 7 7 7 5 5 6 4 2 3 4 5 5 5 5 5 5 6 6 7 7 7 7 5 5 6 6 6 7 5 4 5 4 4 5 4 4 4 4 4 6 8 9 7 5 5 5 5 4 5 5 4 5 6 6 5 5 5 6 6 6 7 7 7 8 9
12 7 8 7 8 9 9 9 9 10 11 8 6 8 11 10 11 14 13 9 11 11 7 4 6 9 6 4 5 5 5 5 6 5 5 4 4 3 4 4 3 3 4 5 4 5 5 5 8 8 4 5 5 5 5 5 5 5 4 4 4 3 4 8 5 6 5 6 6 5 7 4 5 4 5 6 5 5 6 5 6 6 6 6 7 7 8
9 11 9 9 5 4 7 9 10 12 12 10 12 13 12 11 11 11 12 9 5 4 6 8 6 5 6 6 6 6 6 6 5 5 4 4 3 2 2 2 3 4 4 4 4 5 6 7 8 4 4 5 5 5 5 5 5 5 5 4 4 3 3 5 6 5 5 5 5 5 5 6 6 6 5 6 6 6 5 6 6 6 6 7 7 7 7
14 15 17 14 10 12 13 14 11 11 11 10 10 10 8 8 10 10 8 4 4 5 7 6 6 6 7 7 7 6 7 7 4 3 4 4 2 2 2 2 1 3 3 3 3 4 4 6 6 6 5 5 5 5 5 5 5 6 5 5 5 3 3 4 5 4 5 6 7 6 5 6 5 5 6 6 6 5 6 5 6 6 6 6 7 6 11
9 11 10 11 7 10 11 12 11 11 12 12 10 9 9 7 6 6 3 5 6 4 3 7 7 7 8 7 7 6 7 6 5 5 4 3 2 2 1 1 0 2 4 6 5 6 6 7 5 5 5 5 5 5 6 7 5 6 5 5 5 4 4 5 4 5 5 6 5 5 5 5 5 5 6 6 5 6 6 6 5 6 6 7 7 6 7
5 7 8 9 10 7 9 11 10 6 7 9 8 5 5 4 3 3 4 3 4 6 7 7 8 8 8 8 7 8 7 3 4 3 3 2 2 2 2 0 1 3 4 9 7 6 6 5 6 8 4 4 4 5 5 5 5 5 4 4 4 4 5 4 5 4 5 5 5 6 5 6 6 6 5 5 5 5 5 5 5 5 5 6 6 7 7
6 10 10 9 3 1 2 1 1 1 1 1 1 3 4 3 4 4 5 6 5 6 7 8 8 8 7 5 5 4 3 3 4 3 3 2 3 2 1 1 2 3 2 5 4 1 2 2 4 6 4 3 3 3 4 6 5 5 4 5 4 4 4 5 4 5 6 4 5 5 7 6 4 5 6 5 5 5 5 5 6 6 5 5 5 6 7
1 1 2 1 1 3 4 2 1 3 7 9 6 5 6 7 6 6 6 5 5 5 4 5 5 6 7 6 5 4 3 3 3 3 2 2 2 1 1 2 5 2 4 6 2 1 2 2 4 3 2 3 3 4 4 6 6 5 5 5 4 4 5 4 5 6 6 5 6 4 5 5 5 5 5 5 5 5 6 6 6 5 5 5 5 5 6
2 3 5 4 5 7 6 4 4 4 3 10 9 8 4 7 7 7 8 6 4 4 6 7 6 7 6 6 4 2 1 2 3 4 3 2 1 2 5 5 6 6 6 3 2 5 5 5 6 5 5 5 5 5 5 6 7 5 5 4 4 5 4 5 5 6 6 6 4 5 5 5 5 5 5 5 5 5 6 6 5 6 5 5 6 6 6
3 3 3 5 5 4 6 7 6 6 5 4 8 9 5 7 7 8 7 7 4 3 5 5 6 6 5 4 4 3 2 2 3 4 2 1 1 1 4 7 9 8 8 8 7 6 7 9 6 5 6 5 4 5 5 5 5 5 4 5 4 5 4 5 4 5 5 5 5 5 5 5 5 5 5 5 5 5 6 5 5 5 5 5 6 6 7
4 6 4 5 6 4 6 8 8 6 6 7 7 6 4 6 7 8 6 6 4 3 5 4 5 4 4 4 3 2 3 1 4 4 5 2 0 2 3 7 2 2 3 3 4 5 7 6 4 6 6 5 4 4 4 6 4 4 5 4 4 5 4 5 5 5 6 5 6 5 5 5 4 5 5 5 5 5 5 5 5 5 6 6 6 6 6
4 5 6 7 6 6 6 7 8 9 7 6 5 5 5 4 5 7 6 6 5 5 4 4 4 4 3 2 1 1 2 1 2 2 3 4 4 3 4 7 2 2 3 4 5 5 4 4 5 5 5 4 4 5 5 5 4 3 4 4 4 4 4 4 6 6 6 5 5 5 5 5 5 5 5 5 5 5 5 5 5 5 6 6 6 6 6
5 6 7 7 6 6 6 6 8 9 7 7 5 5 5 5 7 6 5 5 5 4 5 4 3 4 3 2 1 1 3 1 1 1 2 6 7 7 6 6 5 4 6 6 4 4 6 6 5 4 5 6 5 6 6 4 4 4 4 4 5 4 5 5 5 5 4 4 5 5 5 5 5 5 5 5 5 5 5 5 5 6 6 6 6 6 6
4 5 5 7 7 5 6 7 7 7 9 6 4 5 5 5 4 5 5 5 4 3 4 2 2 1 1 1 1 1 4 2 3 1 2 6 7 4 7 7 6 6 7 6 4 5 5 5 4 6 7 8 7 7 5 3 3 4 3 4 4 5 4 4 5 4 5 5 5 5 5 6 5 5 4 5 5 5 5 5 5 6 6 6 6 6 6
4 5 6 6 6 6 6 6 7 7 6 6 5 5 5 4 4 4 4 4 3 2 2 2 1 1 2 2 3 4 3 3 3 2 0 4 2 6 1 4 5 3 5 6 4 4 5 5 6 7 6 6 7 6 4 3 3 3 3 4 5 4 5 5 5 5 5 5 5 5 6 5 5 5 5 6 6 6 6 6 6 6 6 6 6 6 6
7 6 6 7 7 5 5 5 5 6 7 7 6 4 4 3 3 2 2 2 2 1 1 2 2 3 3 3 4 3 3 5 5 5 6 6 5 5 0 2 4 4 8 8 4 5 5 7 8 7 7 6 6 5 3 3 4 3 4 4 4 6 5 5 5 5 5 5 5 5 5 5 5 5 5 5 6 6 6 7 7 6 6 6 6 6 7
7 7 6 7 6 5 5 5 5 6 6 6 6 3 1 1 2 1 0 1 0 0 0 2 3 3 3 3 4 2 4 5 5 4 6 6 5 6 7 7 7 9 7 5 5 5 5 5 6 7 7 7 6 4 4 4 4 4 4 4 4 4 5 5 5 5 5 5 6 6 6 6 5 5 6 5 6 6 6 6 6 7 6 7 6 7 7
7 8 6 6 7 5 5 5 5 5 4 5 4 4 1 1 1 1 1 1 0 1 2 2 4 4 3 4 4 4 5 2 1 5 2 5 4 3 4 3 6 7 8 7 7 6 8 7 7 7 6 6 4 3 3 3 4 4 4 4 4 5 5 5 5 5 5 5 5 5 5 5 5 5 5 6 6 6 6 6 7 6 6 6 6 6 6
5 7 6 5 6 6 6 5 6 6 4 3 4 2 1 2 2 3 2 2 3 1 1 1 2 3 2 4 3 5 5 4 5 3 1 2 2 2 5 5 8 9 8 4 4 4 6 7 7 7 6 5 3 3 3 4 4 4 5 5 4 5 4 5 5 5 5 5 5 5 5 6 6 6 6 6 6 6 7 7 7 6 7 6 6 7 6
5 5 5 5 5 5 5 5 5 5 3 4 3 1 1 2 4 1 1 1 1 2 1 3 3 4 3 3 2 3 3 4 5 5 5 6 5 5 5 5 5 7 7 5 4 4 4 5 5 5 4 2 3 3 3 4 4 4 4 5 5 5 5 5 5 6 5 6 5 5 6 6 6 6 6 6 6 6 6 6 6 8 10 9 8 7 6
4 4 4 4 3 3 2 3 4 5 4 3 3 1 1 3 2 1 0 0 1 2 3 5 4 2 2 3 4 3 1 3 3 4 4 5 4 5 6 5 4 4 4 4 3 4 3 2 2 3 2 2 3 3 3 3 4 4 4 4 5 5 5 5 5 5 5 5 5 6 6 6 6 6 6 6 6 6 7 7 7 6 6 6 7 7 6
5 5 5 4 5 3 3 2 2 2 2 2 2 2 1 1 1 1 1 1 1 0 1 2 4 2 1 2 4 4 3 1 3 3 4 5 3 3 5 5 4 4 4 3 3 3 2 2 3 3 3 3 3 4 4 4 5 4 5 5 4 5 5 6 5 5 5 6 6 6 6 6 5 6 6 6 6 7 7 6 7 6 7 6 6 6 6
Wind_Direction
245 126 215 173 196 220 206 208 219 221 180 150 202 221 232 181 212 252 243 164 204 239 227 201 217 207 202 212 222 219 218 229 236 215 219 221 221 202 185 202 203 206 209 208 207 201 200 193 197 198 193 200 201 210 215 215 207 215 199 186 196 191 182 162 128 98 48 29 33 16 7 12 18 12 359 347 336 334 327 326 327 327 327 328 325 322 320
230 222 205 202 199 222 266 244 242 229 167 210 215 230 234 173 236 257 265 244 238 236 240 199 220 222 205 229 234 248 193 226 222 219 228 229 218 195 203 207 209 210 212 210 202 194 196 198 198 196 199 202 205 206 217 219 214 220 168 199 187 183 164 141 102 84 66 35 13 5 18 10 18 359 349 340 332 331 328 324 326 324 329 330 322 320 322
246 219 85 63 155 227 251 256 251 233 164 217 226 246 88 222 272 260 263 266 271 264 239 226 248 189 229 266 264 239 233 238 232 225 232 226 211 214 216 219 219 217 217 211 198 198 204 199 200 199 203 208 208 215 221 217 216 207 178 186 178 158 141 134 133 115 104 71 45 33 20 13 359 356 345 340 337 334 335 337 333 335 332 326 328 325 322
276 151 153 165 76 333 253 265 256 153 205 246 232 213 202 221 235 235 244 267 260 263 70 173 249 233 211 226 240 252 248 232 219 219 223 214 218 220 223 225 222 217 214 208 205 207 207 207 204 205 211 214 206 219 220 219 215 171 171 163 148 135 139 141 136 115 110 98 67 37 21 4 347 340 335 337 337 335 334 335 335 335 331 329 328 324 320
215 174 118 137 52 348 285 252 240 202 223 240 245 246 220 223 223 215 226 239 242 257 193 202 250 232 233 244 236 239 258 227 196 203 206 208 215 217 220 219 215 215 213 211 208 210 210 211 210 216 210 205 213 219 218 216 144 156 163 146 135 134 145 130 114 107 99 84 69 36 6 348 333 336 340 337 339 338 333 329 326 329 328 327 322 325 320
169 111 118 99 105 247 245 18 144 182 206 222 233 240 237 225 167 205 206 240 265 261 244 237 254 241 218 217 238 210 202 200 211 227 223 217 217 226 226 218 217 221 221 222 217 214 213 217 216 220 204 209 222 216 193 149 161 162 144 134 132 139 131 118 111 105 88 63 41 9 352 347 345 341 343 337 332 326 320 328 327 322 322 319 319 320 320
176 149 122 173 219 240 10 164 288 195 197 209 219 243 258 249 229 238 252 272 246 229 221 228 238 251 277 248 229 230 223 191 188 196 205 213 212 218 216 221 225 222 218 224 226 230 233 229 228 214 218 215 202 162 163 159 163 150 140 134 133 141 128 121 110 91 77 59 27 357 349 345 343 339 335 329 332 331 330 326 326 321 322 319 316 315 313
48 111 201 226 240 123 245 249 164 111 93 145 70 306 268 246 229 213 215 232 245 238 240 247 260 260 272 302 260 244 252 208 188 179 201 208 198 205 212 205 222 216 215 215 212 221 225 217 224 206 216 185 171 182 158 155 149 139 135 127 133 131 117 115 99 79 61 37 7 352 345 341 339 331 330 329 325 327 321 315 307 308 303 304 306 308 307
186 195 195 238 13 312 283 269 179 177 185 184 171 246 261 252 206 179 197 224 247 243 253 273 262 313 58 305 297 266 224 221 214 187 199 185 198 205 219 194 216 212 211 204 218 217 229 209 218 215 185 162 159 147 147 146 132 129 123 123 135 128 120 115 91 64 50 23 354 345 341 335 327 323 324 321 319 323 311 308 307 306 301 301 303 303 304
142 159 242 298 277 252 250 247 127 249 162 140 175 173 282 282 229 190 177 213 235 231 277 171 181 147 84 295 269 259 249 217 209 242 245 227 211 209 219 223 239 233 223 223 249 195 228 173 36 137 148 152 149 147 143 135 126 118 114 132 135 118 115 103 73 63 42 24 348 333 329 320 312 308 309 301 298 307 299 306 300 295 298 298 293 294 296
65 163 216 224 234 247 223 219 197 233 154 128 108 75 282 266 192 205 181 204 213 181 174 183 155 114 207 248 253 259 243 237 205 210 230 216 216 212 209 194 207 219 209 198 190 151 152 174 138 112 129 138 138 141 140 130 123 124 127 139 130 123 111 89 74 59 38 14 337 318 310 299 299 298 299 294 295 298 284 284 285 293 293 291 291 287 282
218 206 221 238 219 252 268 214 246 182 137 112 77 319 272 257 212 187 170 187 190 204 188 148 156 158 205 243 255 233 217 211 200 188 201 215 228 238 234 236 216 179 152 121 133 163 185 183 141 138 133 123 128 138 140 128 123 140 150 137 128 105 86 75 59 37 17 352 318 304 293 294 290 284 290 296 291 292 288 281 287 288 286 285 288 287 284
230 228 262 343 280 281 217 175 173 144 149 84 109 226 235 234 187 205 185 200 195 173 159 165 176 226 199 209 228 220 160 176 244 245 241 220 211 214 209 219 187 169 182 179 187 191 177 154 154 147 133 127 138 144 144 133 159 152 134 115 91 81 78 53 22 357 346 316 294 288 280 284 289 290 289 289 295 290 290 288 282 284 283 284 284 283 281
226 224 239 241 268 233 175 280 155 159 96 186 221 234 194 149 197 207 196 202 204 165 176 187 208 224 225 237 98 153 180 192 205 206 217 226 260 272 248 196 164 170 166 158 130 134 159 161 159 151 140 142 149 152 146 172 166 130 112 100 92 85 72 40 322 308 290 287 276 275 283 287 292 285 277 277 282 287 284 286 287 284 286 286 285 285 281
74 173 232 303 273 265 133 126 58 287 153 231 191 153 226 188 182 177 215 207 212 170 208 213 215 235 250 229 223 220 211 210 226 224 218 221 224 219 199 200 215 170 167 180 188 174 164 163 155 155 140 147 157 155 172 188 139 122 110 106 105 114 121 235 265 269 271 270 274 275 277 273 277 282 284 284 279 277 282 284 282 286 287 288 289 291 290
150 192 196 206 225 110 151 139 173 206 213 187 161 133 200 214 165 185 192 223 211 196 199 213 234 240 246 267 251 241 240 232 247 252 243 241 246 254 237 213 188 181 182 180 166 156 158 157 152 152 150 152 162 167 187 136 129 113 111 110 116 129 207 254 270 275 265 268 268 269 269 276 274 279 284 278 277 272 275 277 285 287 286 289 291 292 298
162 193 215 202 132 158 187 170 192 201 215 178 181 158 180 164 229 190 181 220 217 196 205 222 220 236 232 231 229 209 226 223 224 230 229 221 222 221 217 214 188 181 185 180 166 161 166 156 148 146 146 149 158 178 178 136 135 134 132 131 138 200 243 259 264 261 272 267 267 266 265 264 273 274 278 274 280 267 267 277 276 282 286 284 286 292 293
280 288 215 140 39 166 194 234 205 200 226 230 160 188 209 235 199 167 186 212 202 205 204 206 240 226 235 231 240 234 238 233 235 233 247 251 239 235 219 195 187 190 160 150 162 171 173 172 155 148 142 145 161 196 147 143 139 142 142 145 178 221 240 250 252 260 270 273 265 261 262 255 252 257 264 273 272 279 271 270 269 272 282 284 282 283 283
156 256 151 157 201 196 199 212 237 250 240 223 187 200 219 227 195 197 217 204 206 206 191 199 219 230 227 230 236 235 238 236 236 229 228 236 226 210 209 209 160 156 158 165 181 180 184 188 168 158 146 140 146 136 150 147 146 142 147 166 203 224 239 246 258 254 256 265 270 264 260 258 252 255 258 263 266 270 266 269 270 265 270 277 280 276 280
193 240 220 223 42 298 230 215 217 238 243 220 192 211 221 224 229 203 217 205 238 201 196 214 216 234 234 224 235 237 235 239 239 236 231 232 229 223 206 169 172 161 174 185 188 185 192 182 172 163 160 164 156 146 149 147 142 139 166 185 204 225 234 235 248 247 250 260 263 269 261 258 267 268 259 253 259 259 258 259 266 270 264 267 271 275 273
244 267 255 125 25 330 272 248 243 239 236 216 212 216 224 226 239 252 248 191 217 208 227 219 216 231 244 231 227 230 239 244 245 241 235 225 220 201 178 185 174 184 187 190 190 186 187 167 169 168 178 177 161 156 162 152 145 158 191 206 212 226 235 237 247 245 243 251 259 264 273 262 251 248 260 263 261 265 248 235 238 251 257 242 243 246 253
230 187 219 135 173 250 245 231 229 228 226 215 231 221 212 226 231 236 244 256 234 230 239 230 212 221 240 245 227 230 236 239 241 242 238 228 208 199 190 158 184 181 182 180 175 182 178 166 169 174 185 190 182 173 167 163 158 176 197 204 213 233 234 235 244 249 258 258 258 262 265 276 277 271 251 266 265 258 261 266 267 269 275 277 282 287 283
228 219 210 193 209 235 228 232 229 216 215 200 218 234 234 236 229 227 229 249 266 247 240 227 214 224 232 243 238 233 245 243 238 236 230 212 198 191 168 157 178 184 177 168 163 173 175 165 170 176 186 190 184 196 181 185 175 190 186 199 215 230 230 237 237 243 251 262 264 264 265 271 273 282 292 275 278 279 276 278 281 283 286 287 291 293 293
261 205 215 192 168 218 245 249 231 195 200 193 214 229 231 233 236 228 216 223 231 252 255 238 209 220 232 240 234 234 242 246 243 235 223 213 200 178 175 182 178 170 170 176 181 180 163 165 171 178 198 208 194 203 197 195 184 187 192 192 215 225 224 237 249 258 259 260 269 268 272 269 274 286 290 303 297 284 286 290 293 294 292 292 293 296 301
226 214 183 168 201 231 242 248 239 229 203 182 202 222 224 227 236 222 221 235 228 228 244 258 246 206 221 239 227 225 232 240 233 225 198 175 167 173 183 176 179 185 184 169 148 144 150 157 166 185 211 232 204 215 200 195 180 191 199 198 213 229 229 242 247 255 263 263 266 266 273 278 279 277 289 295 306 315 311 307 307 301 297 295 299 307 314
226 251 196 153 196 232 243 313 290 255 240 194 206 234 235 212 225 223 226 227 236 227 230 243 258 244 196 230 234 233 243 249 198 141 151 172 165 168 185 191 169 122 124 128 132 135 146 160 174 192 227 236 212 219 204 192 186 199 206 209 212 215 228 232 241 249 253 257 260 265 261 268 269 277 272 277 286 292 311 322 329 328 322 288 298 317 317
216 221 142 84 254 254 217 204 243 249 248 187 186 214 219 211 216 222 233 235 235 238 228 238 237 259 226 221 233 232 218 189 130 175 183 177 183 183 143 108 118 126 124 127 135 150 155 165 178 206 237 238 213 212 205 193 194 203 212 218 220 235 242 243 230 244 250 257 260 263 264 263 268 271 274 273 277 294 303 307 312 310 312 317 318 324 326
211 213 181 199 228 240 241 225 230 253 262 231 188 209 227 217 222 236 249 250 254 248 242 234 233 244 245 229 176 197 120 169 195 182 174 176 138 101 118 120 118 124 127 134 152 152 156 169 190 223 248 232 204 207 208 192 191 209 214 218 223 235 237 243 245 245 253 250 255 255 257 263 255 258 270 285 289 285 286 289 288 295 301 303 303 314 322
227 223 200 211 228 238 249 253 189 233 248 251 218 230 219 212 228 227 238 234 230 233 244 241 218 220 224 223 175 197 194 190 186 188 175 124 119 121 115 115 112 114 126 139 157 161 172 183 202 228 250 216 210 211 205 188 197 204 216 217 222 229 238 241 238 247 254 251 251 251 263 267 273 285 281 276 277 277 283 278 284 285 287 299 312 314 321
239 201 182 222 232 243 250 255 244 237 237 237 212 230 216 209 232 241 235 238 223 224 236 221 181 222 198 193 205 198 196 199 184 140 130 138 131 123 122 119 104 88 99 169 203 188 185 198 200 224 238 195 202 209 197 188 201 208 219 223 223 229 238 241 248 252 252 249 249 258 265 276 275 271 276 275 270 273 279 282 285 293 297 301 304 307 313
247 164 202 212 217 220 220 233 240 240 232 226 213 225 233 196 225 244 247 238 228 233 238 207 213 199 193 199 170 125 103 112 123 131 129 133 134 135 138 145 151 184 198 206 193 182 187 197 208 226 224 198 199 200 188 194 206 215 217 225 222 236 245 259 263 248 235 248 258 263 269 267 267 268 273 274 280 279 273 275 282 286 284 291 295 299 302
258 232 230 223 218 215 228 236 238 239 236 225 201 222 223 206 220 232 240 238 230 225 220 189 196 208 189 134 124 115 110 110 113 117 124 123 131 141 145 161 174 175 187 196 193 191 197 202 225 232 206 205 203 199 195 199 201 207 220 219 219 224 246 257 258 270 275 272 268 265 268 272 268 260 264 272 275 275 277 281 285 285 287 291 295 292 298
240 255 267 255 237 214 234 235 221 237 238 228 219 224 224 217 222 231 234 233 229 189 188 211 202 154 142 139 129 125 121 114 110 121 133 148 159 171 172 171 186 198 213 217 208 207 203 215 233 216 202 203 202 203 199 201 202 209 217 211 214 222 224 240 252 255 265 266 264 262 260 256 257 264 263 268 266 270 275 277 280 283 286 284 283 288 291
218 225 234 237 205 208 221 235 224 230 242 239 232 230 230 223 220 228 236 214 190 195 204 192 146 133 132 134 131 127 129 120 131 175 191 182 184 193 205 195 203 221 245 268 252 244 241 239 241 240 228 208 207 203 204 196 203 202 210 201 210 216 224 237 248 256 258 256 256 258 260 266 268 263 263 263 265 269 273 277 280 283 289 287 286 287 297
219 237 240 248 228 208 216 225 229 221 226 239 240 229 228 224 214 224 208 187 202 188 123 113 126 128 127 126 133 146 160 177 183 171 171 169 163 168 139 102 351 333 304 282 262 258 246 249 244 244 239 231 215 209 195 194 194 203 201 203 203 213 220 233 234 237 240 252 257 260 264 258 260 260 260 261 266 268 273 273 274 282 284 293 297 299 300
203 230 246 249 242 221 215 227 236 240 227 229 240 238 212 198 165 153 154 141 86 104 119 122 125 126 127 137 148 164 178 169 144 133 132 132 134 109 101 98 316 310 306 299 273 246 248 245 246 235 228 220 217 216 208 203 199 195 205 192 206 221 224 232 237 243 247 249 256 254 256 258 262 262 264 268 266 267 267 269 272 271 273 280 286 300 302
208 221 234 246 272 160 193 357 357 334 212 217 135 116 112 98 112 92 94 107 113 112 129 133 130 140 154 151 129 106 96 121 129 136 148 119 94 100 135 243 259 250 281 292 280 279 297 255 253 244 226 215 215 217 215 202 197 198 194 197 204 215 230 241 245 243 253 247 245 253 259 267 269 268 268 263 267 263 262 269 272 274 275 277 287 294 300
201 178 282 310 107 101 81 53 25 101 106 76 48 72 120 121 117 112 104 102 109 118 114 113 117 114 113 99 92 105 108 97 119 128 133 133 145 150 243 217 252 205 236 238 242 243 251 260 282 285 284 261 252 240 233 220 212 191 187 196 204 214 226 231 242 247 246 246 245 247 252 255 259 265 260 259 258 259 266 265 270 276 279 285 289 289 290
124 58 67 83 84 93 104 63 42 32 83 124 113 86 88 109 109 105 100 90 90 104 104 104 112 108 113 120 125 119 164 190 164 141 145 167 180 178 234 231 240 224 235 242 267 279 276 272 261 255 251 247 248 250 238 235 227 197 192 197 209 213 221 227 236 242 244 242 245 245 245 251 252 257 265 260 258 262 267 273 276 279 287 291 294 294 295
125 101 119 108 97 99 90 76 61 64 54 82 121 127 133 113 108 105 107 101 81 91 110 121 119 123 132 138 149 174 221 200 173 144 181 168 118 271 288 275 257 252 248 257 265 268 271 271 266 253 247 247 235 234 236 226 222 204 195 200 211 214 222 227 232 240 246 244 248 252 249 252 253 258 261 268 274 273 273 276 280 282 285 287 284 283 290
114 111 106 96 100 92 100 101 84 61 68 73 79 92 100 116 120 114 116 123 115 92 96 110 112 120 140 153 165 192 158 139 149 175 170 129 252 259 267 284 264 202 232 240 249 254 265 265 241 246 252 239 233 228 226 229 215 199 204 204 209 212 224 227 229 232 238 240 238 239 243 246 255 263 264 271 271 272 273 275 276 278 276 280 282 281 279
114 106 103 98 96 98 98 106 111 91 69 64 72 77 73 79 107 122 127 115 103 91 81 70 87 116 153 146 135 41 333 241 196 211 184 193 220 226 263 275 256 252 250 251 266 271 266 260 249 243 242 234 230 234 223 217 208 206 212 217 216 218 222 226 231 236 236 234 238 243 242 245 250 257 263 265 272 270 273 276 280 280 277 272 274 278 283
122 123 117 113 113 112 114 109 100 108 101 73 63 67 74 81 92 93 92 89 96 96 88 68 72 75 90 98 97 351 307 309 316 285 254 238 227 220 225 261 298 301 300 296 279 274 266 254 247 246 243 238 227 232 234 222 202 206 211 218 224 224 224 226 229 235 232 235 242 239 240 244 242 247 257 258 257 265 269 272 272 275 276 273 272 276 278
101 101 112 116 115 113 109 106 106 103 103 89 61 69 80 79 88 102 109 110 101 96 111 111 98 99 112 120 123 280 291 306 298 5 50 324 318 261 209 233 259 272 285 271 277 267 272 258 249 243 246 243 246 240 228 216 217 215 219 221 227 230 230 234 238 231 233 235 236 239 240 238 241 245 244 256 263 265 260 262 262 263 268 271 268 270 274
86 97 107 111 116 116 114 120 125 122 116 121 98 74 75 82 72 83 107 108 115 106 96 108 113 116 150 170 200 220 231 221 205 152 307 301 332 305 227 195 241 262 267 270 268 263 262 266 259 255 253 255 253 249 233 224 222 225 229 229 229 229 232 234 236 234 234 234 237 241 238 237 241 243 246 251 253 260 262 265 266 265 266 272 276 279 279
100 101 110 111 104 98 99 101 98 105 111 103 88 68 51 67 89 77 94 117 126 163 143 175 161 198 183 204 224 252 268 264 241 225 224 206 223 243 227 254 252 260 280 286 273 268 259 260 264 264 262 263 258 251 231 232 226 233 237 237 234 234 237 238 238 242 240 238 244 238 238 241 242 244 240 244 246 253 259 258 263 267 258 264 267 267 268
111 101 91 98 97 91 95 99 105 102 98 93 93 91 61 56 76 88 162 190 181 219 267 271 251 239 221 210 200 230 270 306 298 231 220 240 249 265 264 273 275 278 281 270 259 262 263 261 265 270 268 266 262 241 232 233 234 237 239 241 239 240 243 241 243 242 243 246 243 244 246 242 241 246 246 249 254 255 260 264 266 266 265 264 266 268 272
112 112 109 105 106 99 89 89 93 91 92 122 137 121 130 57 50 23 25 50 330 322 297 274 264 266 258 252 243 231 197 147 10 309 200 207 228 224 264 264 258 260 272 282 280 277 275 270 265 265 265 265 258 247 238 238 238 237 237 239 244 242 243 247 249 245 249 247 246 248 253 253 252 249 249 249 254 254 252 255 260 266 265 261 262 265 266
81 97 96 90 92 94 100 103 103 106 116 125 113 124 142 92 83 71 80 42 25 5 316 291 273 272 265 237 219 223 227 231 184 224 247 183 209 237 256 264 273 280 284 277 276 272 276 278 280 278 274 266 256 251 251 248 246 245 246 248 247 245 243 244 246 246 246 250 249 249 251 256 256 250 253 254 255 256 257 256 257 257 262 265 266 264 263
108 105 98 106 107 105 111 107 109 132 149 128 119 140 106 89 88 42 6 45 9 298 337 321 309 296 282 290 266 249 210 207 239 262 274 279 277 274 271 269 266 267 268 262 257 262 261 268 270 270 264 258 254 252 246 247 243 247 250 254 254 258 250 250 255 250 242 247 250 250 253 252 254 253 254 255 256 258 254 256 259 261 263 263 265 266 266
118 103 110 107 102 105 76 90 136 145 141 143 143 165 109 97 137 184 39 284 61 23 342 326 306 296 309 325 319 304 254 224 235 240 248 259 261 267 265 269 270 281 283 286 279 280 277 261 250 253 259 265 262 257 252 260 262 264 261 258 260 266 267 262 259 262 263 258 261 262 260 260 258 262 260 260 262 265 265 267 267 267 263 263 261 263 264
81 82 88 102 107 107 114 77 61 94 119 120 132 121 109 144 104 20 328 352 114 144 8 19 339 310 328 310 314 314 308 234 233 249 264 270 285 295 300 300 300 297 291 293 300 300 299 307 310 297 293 285 284 281 280 275 272 267 269 269 266 263 261 263 262 265 268 264 260 263 258 259 259 263 265 263 261 264 268 268 267 268 268 267 266 265 268